Vorticity
0 1 1 2 5 8 9 7 6 7 9 12 14 14 13 11 9 8 7 7 6 5 3 1 3 6 9 8 10 10 10 9 8 8 8 8 7 6 5 4 4 7 12 18 18 8 -3 -9 -3 3 7 9 7 5 3 2 2 2 3 3 3 3 3 3 3 4 4 5 5
2 2 2 3 6 7 7 6 8 9 11 12 12 11 9 8 6 5 5 5 5 6 7 5 2 1 1 -2 -1 -0 2 3 3 4 6 7 7 5 2 -0 2 11 21 27 12 -4 -12 -1 11 14 13 9 5 2 1 1 2 3 3 3 3 3 4 4 5 5 5 5 4
2 1 1 3 5 6 6 5 6 7 8 9 8 5 2 1 -0 1 4 8 12 16 19 15 5 -3 -9 -15 -17 -14 -8 -2 -1 0 1 2 1 -0 -3 -5 -2 7 16 15 -10 -15 -5 12 14 12 8 4 1 -1 -0 1 3 4 4 4 4 4 5 5 5 5 5 5 5
4 1 -0 2 5 5 3 1 4 6 7 6 4 4 5 8 12 16 20 25 28 32 32 24 9 -0 -7 -12 -17 -17 -13 -6 -3 -2 -4 -6 -6 -6 -4 -0 2 1 -3 -9 -16 -9 3 12 11 8 4 0 -2 -1 1 3 4 4 5 4 4 4 5 5 5 5 5 4 4
4 3 1 1 5 9 17 29 38 32 19 8 11 18 23 21 20 17 14 8 8 8 7 2 0 5 10 11 -4 -11 -11 -4 -0 -0 -2 -3 -2 1 5 10 12 9 2 -4 -2 3 9 12 11 6 0 -4 -4 -0 3 5 5 5 4 4 4 4 5 4 4 4 4 4 3
4 4 4 6 6 9 16 28 15 6 7 22 20 8 -3 -5 10 26 36 38 35 30 24 15 20 27 31 26 10 -0 -4 -0 5 7 8 10 11 12 13 13 13 11 9 6 6 9 12 14 7 -4 -11 -11 -3 3 5 5 5 4 3 4 4 4 4 4 4 3 3 3 3
2 3 5 8 10 9 1 -16 -26 -14 8 23 12 -0 -7 0 9 25 44 63 63 55 43 32 33 35 34 28 18 11 7 6 7 10 13 14 14 12 10 8 6 5 4 4 6 9 10 8 -5 -13 -14 -4 3 5 5 5 4 4 4 4 4 4 4 4 4 3 3 3 3
1 1 3 5 9 8 3 -3 2 16 22 7 -13 -16 -9 1 1 9 20 29 31 29 26 24 25 27 28 25 20 15 11 8 7 7 9 12 11 9 7 5 4 4 5 6 8 8 5 -1 -9 -11 -7 3 6 6 5 4 4 4 4 4 4 4 5 4 4 3 3 3 3
6 3 0 -1 3 4 4 2 2 -5 -14 -16 -7 -1 2 4 5 10 15 16 11 9 10 13 17 19 20 19 16 14 12 10 8 9 10 11 9 6 2 1 3 6 9 11 11 8 4 -2 -9 -8 -2 6 7 6 5 4 3 4 4 4 4 4 4 4 4 4 4 4 4
15 12 7 3 3 4 4 -1 -10 -14 -13 -6 3 10 14 10 9 14 17 14 4 2 4 8 10 10 9 7 10 12 13 11 9 8 7 4 -3 -6 -6 -0 5 10 12 13 11 7 1 -7 -11 -7 0 8 7 6 4 3 3 4 4 4 4 4 4 4 4 4 4 4 4
17 17 14 8 6 6 7 4 -1 -3 -1 5 14 17 15 9 8 12 14 9 3 1 2 5 5 3 1 2 8 10 8 1 -3 -4 -5 -6 -8 -5 -1 6 11 14 15 14 10 2 -7 -14 -9 -3 3 7 6 5 4 3 4 4 4 5 5 5 5 5 4 4 4 4 4
15 15 13 8 3 3 5 7 5 5 9 17 23 21 15 11 11 13 13 9 4 2 2 3 4 1 -2 0 1 -1 -6 -13 -14 -9 -3 1 6 10 13 15 15 14 11 5 -5 -12 -16 -12 -3 3 5 6 5 5 4 4 4 5 5 5 5 5 5 5 5 5 5 5 5
5 6 6 6 2 0 1 5 6 6 10 21 23 18 11 8 8 8 7 4 1 -1 -1 -1 -2 -3 -3 -2 -2 -3 -4 -5 -1 3 8 11 16 18 18 14 8 3 -4 -12 -17 -15 -8 1 4 6 6 6 5 5 5 5 5 5 6 6 6 6 6 5 5 5 5 5 6
-2 -3 -2 -1 0 1 2 5 4 -0 -3 3 -2 -8 -12 -9 -5 -3 -2 -1 -2 -4 -5 -4 -6 -5 -3 -1 0 1 3 5 6 7 8 8 9 7 3 -3 -8 -12 -14 -13 -6 0 5 7 7 7 7 6 6 6 6 6 7 7 7 6 6 6 6 6 5 5 6 6 7
9 8 8 9 9 8 5 2 -3 -6 -10 -15 -22 -21 -14 -6 -3 -2 -3 -3 -2 -2 -2 -3 -3 -2 -1 -0 1 1 2 3 3 3 3 2 1 -1 -5 -10 -10 -8 -4 1 5 7 8 8 8 8 8 8 8 8 8 7 7 7 7 7 6 6 6 6 6 7 7 8 9
25 27 28 29 23 14 5 -2 -4 -3 -1 2 2 2 3 5 6 4 2 0 0 0 0 0 0 0 1 1 1 1 2 2 2 2 2 2 2 2 1 1 4 6 9 10 10 10 10 10 10 10 9 9 9 9 8 8 8 7 7 7 7 7 7 7 8 8 9 10 12
19 20 21 21 16 9 3 -1 0 2 3 4 5 5 6 6 6 5 4 3 2 1 1 1 2 2 2 3 4 5 5 4 5 5 6 7 7 8 9 11 12 12 13 12 12 12 12 11 11 10 10 9 9 9 8 8 8 7 7 7 7 7 8 9 9 10 11 13 14
7 7 6 5 4 3 2 2 2 3 3 3 3 4 4 4 3 3 4 4 4 4 4 5 5 6 6 6 7 7 8 8 9 10 10 11 11 12 13 14 14 14 14 13 13 12 12 11 11 10 10 9 9 9 8 8 8 8 8 8 8 9 9 10 11 13 14 15 15
8 7 5 4 4 3 3 3 3 3 3 3 3 3 3 3 3 3 4 6 7 8 9 9 9 10 10 9 9 10 10 11 11 12 13 13 13 14 14 14 14 14 13 13 12 12 11 11 10 10 9 9 9 8 8 8 8 8 8 9 10 11 12 13 14 14 15 15 15
10 10 10 10 9 8 7 6 5 5 5 5 5 4 5 5 5 7 8 11 12 12 12 12 12 12 12 12 12 12 13 14 14 14 14 14 14 14 14 13 13 13 12 12 11 11 10 10 9 9 9 8 8 8 8 8 9 9 10 11 12 13 14 14 14 14 14 14 13
11 11 12 12 12 12 12 11 10 9 9 8 8 8 9 9 11 12 13 14 14 14 13 13 13 12 12 13 13 14 14 14 15 14 14 14 14 13 13 12 12 11 11 11 10 10 9 9 9 8 8 8 8 9 9 10 11 11 12 13 14 14 14 14 13 13 12 12 12
11 11 11 12 13 14 14 14 14 13 13 13 13 13 14 14 15 15 15 14 14 13 13 13 12 12 12 12 13 13 12 13 13 13 12 12 12 12 11 11 10 10 10 9 9 9 9 9 9 9 9 9 10 11 11 12 13 13 13 13 13 13 12 12 11 11 10 10 10
11 11 12 12 13 13 14 15 15 16 16 16 17 17 16 16 16 15 14 13 13 13 12 12 12 11 11 11 11 11 11 11 12 12 12 11 11 11 10 10 10 9 9 9 9 9 9 9 9 10 10 11 11 12 12 12 13 12 12 12 11 10 10 9 9 9 9 9 10
12 12 12 12 12 13 14 15 15 16 16 17 17 16 16 15 15 14 13 12 12 11 11 11 11 10 10 10 10 10 10 10 10 11 11 11 10 10 10 9 9 9 9 9 9 9 10 10 10 11 11 11 11 11 11 11 11 10 10 9 9 9 8 8 9 9 9 9 10
13 13 12 11 11 12 12 13 14 14 15 15 15 15 14 14 13 12 11 11 11 10 10 10 10 10 10 10 10 10 10 10 10 10 10 10 10 10 9 9 9 9 9 9 9 10 10 10 11 11 11 11 10 10 9 9 9 8 8 8 8 8 8 8 9 9 9 9 10
13 13 12 11 11 11 11 12 12 13 13 14 14 13 13 12 12 11 11 10 10 10 10 9 9 9 9 10 10 10 11 11 10 10 9 10 10 10 10 9 9 9 9 9 9 9 10 10 10 10 9 9 9 9 9 8 8 8 8 8 9 9 9 9 10 10 10 10 10
13 14 13 12 11 11 10 11 11 12 13 13 13 13 13 12 12 11 11 11 10 10 10 10 10 10 10 10 10 10 11 10 10 10 10 9 10 10 10 9 9 9 9 9 9 9 8 8 8 8 8 8 8 8 9 9 9 9 9 9 10 10 10 11 11 10 10 10 10
13 14 14 13 12 11 10 10 11 11 12 12 13 13 13 12 12 12 12 11 11 10 10 11 10 10 10 11 11 11 10 10 10 10 10 10 9 9 9 9 9 9 8 8 8 7 7 7 7 7 7 7 7 7 8 9 9 10 10 10 10 11 12 12 12 11 11 11 10
15 15 14 13 12 11 10 10 10 11 12 12 12 12 12 12 12 12 12 11 11 11 11 11 11 11 11 12 12 11 11 11 11 10 10 10 9 9 9 9 8 8 8 7 7 6 6 6 7 7 7 7 7 7 7 8 8 9 9 10 10 11 12 12 13 13 12 12 11
16 15 14 13 11 11 10 10 11 11 12 12 12 12 12 12 12 12 12 12 12 11 11 11 11 12 12 12 11 11 11 11 10 10 9 9 9 8 8 8 8 7 7 6 6 6 6 6 6 7 7 7 7 7 7 7 7 8 8 9 9 10 11 12 13 14 13 13 12
16 14 13 12 11 11 10 10 11 11 11 12 12 12 12 12 12 12 12 12 11 11 11 11 12 12 11 11 10 10 10 10 9 9 8 8 8 8 7 7 7 6 6 6 6 6 6 6 6 6 6 7 7 7 6 6 7 7 7 8 9 10 11 12 13 14 14 14 13
14 13 12 11 11 11 10 10 10 11 11 11 12 12 12 12 12 12 12 11 11 11 11 12 12 11 11 10 10 9 9 8 8 8 7 7 7 7 7 7 6 6 5 5 6 6 5 5 5 5 5 6 6 6 6 6 6 7 7 8 8 9 10 12 13 14 15 14 13
13 12 12 11 11 11 10 10 10 10 10 11 12 12 12 12 12 12 12 12 11 11 11 10 10 9 9 9 8 8 8 8 7 7 7 7 7 7 6 6 6 5 5 5 5 5 5 5 5 5 5 5 6 6 7 7 7 7 8 8 9 10 11 12 13 14 15 15 14
11 11 11 11 11 11 11 10 10 10 10 11 11 12 12 12 11 11 11 11 10 10 9 8 8 7 7 6 6 6 7 7 6 6 6 6 6 6 6 6 5 5 5 5 4 4 4 4 4 5 5 6 7 7 8 9 9 9 10 10 11 11 12 13 14 15 15 14 13
10 10 11 11 11 11 11 11 10 10 10 11 11 11 12 12 11 11 10 9 9 8 8 8 7 7 7 7 6 6 6 6 6 6 6 6 6 6 6 5 5 4 4 4 4 4 4 4 4 5 6 7 8 8 9 10 10 11 11 12 13 14 14 15 16 16 16 15 13
10 10 10 10 11 11 11 11 10 10 11 11 11 11 11 11 10 9 8 7 7 7 7 7 7 7 7 7 7 6 6 6 6 6 6 6 6 6 6 5 4 4 4 4 3 3 3 4 4 5 6 7 8 9 10 10 11 12 13 14 15 16 17 17 17 17 17 16 14
10 9 9 9 10 11 11 11 11 11 11 11 11 10 10 9 9 8 8 7 7 6 6 6 6 6 6 6 6 6 6 6 6 6 6 6 7 6 6 5 4 4 4 3 3 3 3 4 4 5 6 7 8 9 10 10 12 13 15 17 18 19 19 19 19 19 18 16 14
10 9 9 9 9 10 11 11 11 11 11 11 10 10 9 8 7 7 6 6 6 5 5 5 5 6 6 6 6 6 6 6 6 6 6 7 7 6 6 5 4 4 3 3 2 2 3 3 4 5 6 7 8 9 10 12 13 15 17 19 20 20 20 21 20 20 19 17 15
11 10 9 9 9 9 10 10 11 11 11 10 10 9 8 7 6 6 5 5 5 4 4 5 5 6 6 6 6 6 6 6 6 6 7 7 6 6 5 4 4 3 3 2 2 2 3 4 4 5 6 7 8 10 11 13 15 18 19 20 20 20 20 21 21 20 19 18 16
11 11 10 9 9 8 9 9 10 10 10 9 9 9 8 7 6 5 5 5 5 5 5 5 6 6 6 6 6 7 7 7 7 6 6 6 5 5 4 3 3 3 3 2 2 3 3 4 5 5 6 7 9 11 13 15 18 19 20 20 19 19 20 21 21 21 20 19 17
11 11 11 10 10 9 8 8 8 8 9 9 9 8 7 6 6 5 5 6 6 6 6 7 7 7 7 7 7 7 7 7 7 6 6 5 4 4 3 2 2 3 3 3 3 3 4 5 5 6 7 8 10 13 15 18 19 20 19 18 18 18 20 21 22 22 21 19 18
Height
3118 3117 3117 3116 3116 3116 3116 3117 3116 3115 3115 3115 3115 3115 3116 3117 3118 3119 3120 3121 3121 3121 3122 3123 3123 3124 3124 3125 3126 3127 3128 3129 3130 3131 3131 3131 3131 3132 3132 3132 3132 3133 3135 3135 3135 3135 3135 3136 3137 3138 3138 3139 3139 3140 3140 3140 3140 3140 3139 3139 3139 3139 3138 3138 3137 3137 3137 3136 3136
3115 3115 3115 3115 3114 3114 3115 3114 3112 3111 3111 3113 3113 3113 3114 3115 3117 3118 3118 3119 3120 3120 3121 3121 3121 3121 3120 3121 3122 3125 3126 3128 3128 3129 3129 3130 3130 3131 3131 3131 3132 3133 3133 3133 3133 3132 3132 3134 3136 3136 3137 3137 3137 3137 3137 3138 3138 3137 3137 3137 3136 3136 3136 3136 3135 3135 3134 3134 3133
3114 3113 3113 3113 3112 3112 3111 3110 3109 3110 3110 3111 3111 3112 3112 3113 3115 3115 3115 3117 3118 3118 3118 3118 3118 3117 3117 3119 3121 3123 3124 3125 3126 3126 3127 3128 3129 3129 3130 3130 3131 3132 3132 3133 3131 3130 3131 3133 3134 3135 3135 3136 3136 3136 3136 3136 3136 3135 3135 3135 3134 3134 3134 3133 3133 3132 3132 3131 3131
3111 3111 3111 3110 3111 3110 3109 3106 3106 3107 3108 3109 3110 3110 3111 3111 3112 3113 3114 3114 3114 3114 3114 3114 3114 3114 3116 3117 3120 3121 3122 3123 3123 3123 3124 3125 3126 3127 3128 3128 3129 3130 3131 3131 3128 3129 3131 3132 3132 3133 3133 3134 3134 3134 3134 3134 3134 3133 3133 3132 3132 3132 3131 3131 3131 3130 3130 3129 3129
3109 3110 3109 3108 3109 3109 3107 3104 3102 3103 3105 3107 3107 3107 3107 3109 3110 3110 3110 3111 3111 3112 3111 3111 3112 3114 3115 3117 3119 3120 3121 3121 3121 3121 3122 3123 3124 3125 3126 3126 3127 3127 3128 3128 3128 3129 3129 3130 3130 3131 3131 3130 3131 3131 3131 3131 3131 3131 3131 3130 3130 3130 3129 3129 3128 3128 3128 3127 3127
3107 3108 3108 3106 3106 3106 3106 3103 3099 3099 3102 3106 3106 3105 3105 3107 3108 3108 3108 3108 3110 3111 3111 3112 3113 3114 3115 3117 3118 3119 3120 3121 3121 3121 3121 3122 3122 3123 3124 3124 3125 3125 3126 3126 3126 3127 3127 3128 3129 3129 3128 3128 3129 3129 3129 3129 3129 3128 3128 3128 3128 3127 3127 3126 3126 3126 3126 3125 3125
3106 3106 3106 3104 3104 3104 3105 3102 3100 3099 3101 3103 3102 3102 3102 3104 3105 3106 3106 3106 3108 3109 3110 3111 3112 3113 3114 3116 3116 3117 3118 3119 3120 3121 3121 3121 3121 3122 3122 3123 3123 3124 3124 3124 3125 3125 3125 3125 3127 3127 3126 3126 3127 3127 3126 3126 3126 3126 3126 3126 3125 3125 3125 3124 3124 3124 3123 3123 3122
3103 3104 3104 3103 3102 3102 3102 3101 3101 3099 3098 3099 3098 3099 3100 3103 3105 3105 3106 3106 3106 3107 3108 3109 3111 3111 3113 3114 3115 3116 3116 3117 3118 3119 3120 3120 3121 3121 3121 3121 3122 3122 3123 3123 3123 3123 3123 3123 3124 3124 3124 3124 3124 3124 3124 3124 3123 3123 3123 3123 3123 3122 3122 3122 3121 3121 3121 3120 3120
3101 3101 3101 3101 3101 3100 3100 3100 3099 3097 3096 3095 3096 3098 3101 3102 3104 3105 3106 3105 3105 3106 3106 3108 3109 3110 3111 3112 3113 3113 3114 3114 3116 3117 3118 3118 3118 3119 3119 3120 3120 3120 3121 3121 3121 3120 3119 3119 3120 3120 3121 3121 3121 3121 3121 3121 3121 3121 3121 3121 3120 3120 3120 3119 3119 3119 3118 3117 3117
3098 3099 3099 3098 3098 3098 3099 3098 3097 3096 3095 3094 3096 3098 3099 3101 3102 3104 3104 3104 3104 3104 3105 3106 3107 3108 3109 3110 3111 3111 3111 3111 3112 3114 3116 3116 3116 3116 3116 3117 3118 3118 3118 3118 3118 3117 3116 3117 3118 3118 3118 3118 3118 3118 3118 3118 3118 3118 3118 3118 3118 3117 3117 3117 3116 3116 3115 3114 3114
3096 3096 3096 3096 3095 3096 3096 3096 3096 3096 3095 3095 3096 3097 3097 3098 3099 3101 3101 3102 3103 3103 3104 3104 3105 3106 3107 3107 3108 3108 3109 3110 3110 3111 3113 3114 3114 3115 3115 3115 3116 3116 3116 3116 3115 3114 3114 3114 3115 3115 3116 3115 3116 3116 3116 3116 3116 3116 3115 3115 3115 3115 3114 3114 3114 3113 3112 3111 3111
3093 3094 3094 3094 3093 3093 3094 3094 3094 3094 3094 3095 3095 3095 3095 3096 3096 3097 3099 3100 3100 3101 3101 3101 3102 3103 3104 3105 3106 3107 3109 3109 3109 3110 3111 3111 3112 3112 3113 3113 3113 3114 3113 3113 3112 3111 3111 3112 3112 3113 3113 3113 3113 3113 3113 3113 3113 3113 3112 3112 3112 3112 3111 3111 3111 3110 3109 3108 3108
3091 3091 3091 3091 3091 3091 3091 3091 3091 3093 3094 3094 3093 3092 3092 3093 3093 3094 3095 3097 3097 3097 3098 3099 3101 3102 3103 3105 3106 3107 3107 3107 3108 3109 3110 3111 3111 3110 3110 3110 3111 3111 3112 3112 3111 3110 3111 3111 3111 3111 3111 3110 3111 3111 3111 3110 3110 3110 3110 3110 3109 3109 3108 3108 3107 3107 3106 3106 3105
3089 3089 3089 3089 3088 3088 3089 3089 3089 3091 3092 3092 3091 3091 3091 3091 3091 3091 3092 3093 3096 3097 3098 3099 3100 3101 3102 3103 3104 3105 3105 3106 3106 3108 3108 3109 3109 3108 3108 3108 3109 3110 3110 3110 3109 3109 3109 3108 3108 3108 3108 3108 3108 3108 3108 3108 3107 3107 3107 3107 3106 3106 3106 3105 3105 3104 3104 3103 3102
3087 3087 3087 3087 3086 3086 3087 3087 3088 3088 3088 3088 3088 3089 3091 3091 3091 3091 3092 3093 3094 3096 3097 3098 3099 3100 3101 3101 3102 3103 3103 3104 3104 3105 3106 3106 3106 3107 3107 3107 3107 3107 3107 3106 3106 3106 3106 3106 3106 3106 3106 3106 3106 3105 3105 3105 3105 3105 3104 3104 3104 3103 3103 3102 3102 3101 3101 3100 3100
3084 3085 3085 3085 3085 3085 3085 3086 3086 3087 3087 3087 3088 3089 3090 3090 3091 3091 3091 3091 3092 3094 3095 3096 3097 3098 3099 3099 3100 3101 3101 3101 3102 3103 3103 3104 3104 3104 3104 3104 3104 3104 3103 3103 3103 3103 3103 3103 3103 3103 3103 3103 3103 3103 3103 3102 3102 3101 3101 3101 3101 3100 3100 3099 3099 3098 3098 3097 3097
3082 3082 3082 3083 3083 3083 3083 3084 3084 3085 3085 3086 3086 3087 3087 3088 3089 3089 3090 3090 3091 3092 3093 3094 3095 3096 3096 3097 3097 3098 3098 3099 3099 3099 3100 3100 3100 3101 3101 3101 3100 3100 3100 3100 3100 3100 3100 3100 3100 3100 3100 3100 3100 3100 3100 3100 3099 3099 3098 3098 3097 3097 3096 3096 3096 3095 3095 3094 3094
3079 3079 3080 3080 3081 3081 3081 3082 3082 3082 3083 3083 3084 3084 3085 3086 3086 3087 3088 3088 3089 3090 3091 3091 3092 3092 3093 3094 3094 3095 3095 3096 3096 3096 3096 3096 3097 3097 3097 3097 3097 3097 3097 3097 3097 3097 3097 3097 3097 3097 3097 3097 3097 3097 3097 3096 3096 3096 3095 3095 3095 3094 3094 3093 3093 3092 3092 3091 3091
3076 3077 3077 3078 3078 3078 3079 3079 3079 3080 3080 3080 3081 3081 3082 3083 3084 3085 3086 3086 3087 3088 3088 3089 3089 3090 3090 3091 3091 3092 3092 3093 3093 3093 3093 3093 3094 3094 3094 3094 3094 3094 3094 3094 3094 3094 3094 3094 3094 3094 3094 3094 3094 3094 3094 3093 3093 3093 3092 3092 3091 3091 3091 3090 3090 3089 3089 3088 3088
3074 3075 3075 3075 3076 3076 3076 3077 3077 3077 3077 3078 3079 3079 3080 3081 3082 3083 3084 3084 3085 3086 3086 3086 3087 3087 3088 3088 3088 3089 3089 3090 3090 3090 3090 3091 3091 3091 3091 3091 3091 3091 3091 3091 3091 3091 3091 3092 3092 3092 3091 3091 3091 3091 3091 3090 3090 3090 3089 3089 3088 3088 3088 3087 3087 3086 3086 3086 3085
3072 3072 3073 3073 3073 3074 3074 3074 3075 3075 3076 3076 3076 3077 3078 3079 3080 3081 3081 3082 3082 3083 3084 3084 3084 3085 3085 3086 3086 3086 3086 3087 3087 3087 3087 3088 3088 3088 3088 3088 3088 3089 3089 3089 3089 3089 3089 3089 3089 3089 3089 3088 3088 3088 3087 3087 3087 3086 3086 3086 3086 3085 3085 3084 3084 3083 3083 3083 3082
3070 3070 3071 3071 3071 3071 3072 3072 3072 3073 3073 3074 3075 3075 3076 3077 3077 3078 3079 3079 3080 3081 3081 3081 3082 3082 3083 3083 3083 3084 3084 3084 3085 3085 3085 3085 3085 3085 3086 3086 3086 3086 3086 3086 3086 3086 3086 3086 3086 3086 3086 3086 3085 3085 3085 3084 3084 3084 3083 3083 3082 3082 3082 3081 3081 3081 3080 3080 3079
3067 3068 3068 3069 3069 3069 3070 3070 3071 3071 3071 3072 3072 3073 3074 3074 3075 3076 3076 3077 3077 3078 3078 3079 3079 3080 3080 3081 3081 3081 3081 3082 3082 3082 3082 3082 3083 3083 3083 3083 3083 3083 3083 3083 3083 3083 3083 3083 3083 3083 3083 3083 3082 3082 3082 3081 3081 3081 3080 3080 3080 3079 3079 3079 3078 3078 3078 3077 3077
3065 3066 3066 3066 3066 3067 3067 3068 3068 3069 3069 3070 3070 3071 3071 3072 3072 3073 3074 3074 3075 3075 3076 3076 3076 3077 3077 3078 3078 3079 3079 3079 3080 3080 3080 3080 3080 3080 3080 3081 3081 3081 3081 3081 3081 3081 3080 3080 3080 3080 3080 3080 3080 3079 3079 3079 3078 3078 3078 3077 3077 3076 3076 3076 3076 3075 3075 3075 3074
3063 3063 3063 3064 3064 3065 3065 3066 3066 3067 3067 3068 3068 3069 3069 3069 3070 3071 3071 3071 3072 3073 3073 3074 3074 3074 3075 3075 3076 3076 3076 3077 3077 3077 3077 3077 3077 3078 3078 3078 3078 3078 3078 3078 3078 3078 3077 3077 3077 3077 3077 3077 3076 3076 3076 3076 3076 3075 3075 3075 3074 3074 3073 3073 3073 3073 3072 3072 3071
3060 3061 3061 3062 3062 3062 3063 3063 3064 3064 3065 3065 3066 3066 3066 3067 3067 3068 3069 3069 3070 3070 3071 3071 3071 3072 3072 3073 3073 3074 3074 3074 3074 3075 3075 3075 3075 3075 3075 3075 3075 3075 3075 3075 3075 3075 3075 3075 3075 3075 3074 3074 3074 3074 3073 3073 3073 3073 3072 3072 3071 3071 3071 3070 3070 3070 3069 3069 3069
3058 3058 3059 3059 3060 3060 3061 3061 3062 3062 3062 3063 3063 3064 3064 3064 3065 3066 3066 3066 3067 3068 3068 3069 3069 3070 3070 3070 3071 3071 3071 3071 3072 3072 3072 3072 3072 3073 3073 3073 3073 3073 3073 3073 3073 3072 3072 3072 3072 3072 3072 3072 3072 3071 3071 3071 3070 3070 3070 3069 3069 3068 3068 3067 3067 3067 3066 3066 3066
3056 3056 3056 3057 3057 3058 3058 3059 3059 3060 3060 3060 3061 3061 3061 3062 3062 3063 3064 3064 3065 3065 3066 3066 3066 3067 3067 3068 3068 3068 3069 3069 3069 3069 3070 3070 3070 3070 3070 3070 3070 3070 3070 3070 3070 3070 3070 3070 3070 3070 3070 3070 3069 3069 3069 3068 3068 3067 3067 3066 3066 3065 3065 3065 3064 3064 3064 3063 3063
3053 3054 3054 3054 3055 3055 3056 3056 3057 3057 3057 3058 3058 3059 3059 3060 3060 3061 3061 3062 3062 3063 3063 3064 3064 3065 3065 3065 3066 3066 3066 3066 3067 3067 3067 3067 3067 3067 3068 3068 3068 3068 3068 3068 3068 3068 3068 3068 3067 3067 3067 3067 3067 3067 3066 3066 3065 3064 3064 3063 3063 3062 3062 3062 3061 3061 3061 3061 3060
3051 3051 3051 3052 3052 3053 3053 3054 3054 3055 3055 3056 3056 3056 3057 3057 3058 3058 3059 3059 3060 3060 3061 3061 3061 3062 3062 3062 3063 3063 3064 3064 3064 3065 3065 3065 3065 3065 3065 3065 3066 3066 3066 3066 3066 3066 3066 3066 3065 3065 3065 3064 3064 3064 3064 3063 3062 3062 3061 3061 3060 3060 3059 3059 3058 3058 3058 3057 3057
3048 3048 3049 3050 3050 3051 3051 3051 3052 3052 3053 3053 3054 3054 3054 3055 3056 3056 3056 3057 3057 3058 3058 3059 3059 3060 3060 3060 3061 3061 3061 3061 3062 3062 3062 3062 3063 3063 3063 3063 3063 3063 3063 3063 3063 3063 3063 3063 3063 3063 3062 3062 3062 3061 3061 3060 3060 3059 3058 3058 3057 3057 3056 3056 3056 3055 3055 3055 3054
3046 3046 3046 3047 3048 3048 3049 3049 3049 3050 3050 3051 3051 3051 3052 3052 3053 3053 3054 3054 3055 3055 3056 3056 3057 3057 3057 3058 3058 3059 3059 3059 3060 3060 3060 3060 3061 3061 3061 3061 3061 3061 3061 3061 3061 3061 3061 3061 3061 3060 3060 3059 3059 3058 3058 3057 3056 3056 3056 3055 3054 3054 3053 3053 3052 3052 3052 3051 3051
3043 3044 3044 3045 3045 3046 3046 3046 3047 3047 3048 3048 3049 3049 3050 3050 3051 3051 3051 3052 3052 3053 3053 3054 3054 3055 3055 3056 3056 3056 3057 3057 3057 3057 3058 3058 3059 3059 3059 3059 3059 3059 3059 3059 3059 3059 3059 3058 3058 3058 3057 3057 3056 3056 3055 3054 3054 3053 3053 3052 3051 3051 3050 3050 3049 3049 3049 3049 3048
3041 3041 3042 3042 3043 3043 3044 3044 3045 3045 3046 3046 3046 3047 3047 3048 3048 3049 3049 3050 3050 3051 3051 3051 3052 3053 3053 3053 3054 3054 3054 3055 3055 3056 3056 3056 3056 3057 3057 3057 3057 3057 3057 3056 3056 3056 3056 3056 3056 3055 3055 3054 3053 3053 3052 3051 3051 3050 3050 3049 3048 3048 3047 3047 3046 3046 3046 3046 3046
3039 3039 3040 3040 3041 3041 3041 3042 3042 3042 3043 3044 3044 3045 3045 3046 3046 3046 3047 3047 3048 3048 3049 3049 3050 3051 3051 3051 3052 3052 3052 3052 3053 3053 3054 3054 3054 3055 3055 3054 3054 3054 3054 3054 3054 3054 3054 3053 3053 3053 3052 3051 3051 3050 3049 3048 3048 3047 3046 3046 3045 3045 3044 3043 3043 3043 3042 3042 3042
3036 3037 3037 3038 3038 3039 3039 3039 3040 3040 3041 3041 3042 3042 3043 3043 3044 3044 3045 3045 3046 3046 3046 3047 3048 3048 3049 3049 3049 3050 3050 3051 3051 3051 3051 3052 3052 3052 3052 3052 3052 3052 3052 3052 3051 3051 3051 3051 3050 3050 3049 3049 3047 3046 3046 3045 3045 3044 3043 3043 3042 3041 3041 3040 3040 3039 3039 3039 3039
3034 3035 3035 3036 3036 3036 3037 3037 3037 3038 3039 3039 3040 3040 3041 3041 3041 3042 3042 3043 3043 3044 3044 3045 3045 3046 3046 3047 3047 3047 3048 3048 3049 3049 3049 3050 3050 3050 3050 3050 3050 3050 3049 3049 3049 3049 3048 3048 3048 3047 3046 3046 3044 3044 3043 3042 3041 3041 3040 3039 3039 3038 3037 3037 3036 3036 3036 3036 3036
3032 3032 3033 3033 3034 3034 3034 3035 3035 3036 3036 3037 3037 3038 3038 3039 3039 3039 3040 3040 3041 3041 3042 3042 3043 3043 3044 3044 3045 3045 3046 3046 3046 3047 3047 3047 3047 3048 3047 3047 3047 3047 3047 3046 3046 3046 3046 3046 3045 3044 3044 3042 3041 3040 3040 3039 3038 3037 3036 3036 3035 3035 3034 3034 3033 3033 3033 3033 3033
3029 3030 3030 3031 3031 3032 3032 3033 3033 3034 3034 3035 3035 3035 3036 3036 3036 3037 3037 3037 3038 3039 3039 3040 3041 3041 3042 3042 3042 3043 3043 3044 3044 3045 3045 3045 3045 3045 3045 3045 3045 3044 3044 3044 3043 3043 3043 3043 3042 3041 3041 3039 3038 3037 3036 3036 3035 3034 3033 3033 3032 3031 3031 3031 3030 3030 3030 3030 3030
3027 3027 3028 3028 3029 3029 3030 3030 3031 3031 3032 3032 3032 3033 3033 3033 3034 3034 3034 3035 3036 3036 3037 3038 3038 3039 3040 3040 3040 3041 3041 3041 3042 3042 3042 3042 3043 3043 3043 3043 3042 3042 3041 3041 3041 3040 3040 3040 3039 3038 3037 3036 3035 3034 3033 3032 3031 3031 3030 3029 3029 3028 3028 3027 3027 3027 3027 3027 3027
3024 3025 3026 3026 3026 3027 3027 3028 3028 3029 3029 3030 3030 3030 3031 3031 3031 3031 3032 3032 3033 3034 3035 3036 3036 3036 3037 3038 3038 3038 3039 3039 3039 3040 3040 3040 3040 3041 3041 3040 3040 3039 3038 3038 3038 3037 3037 3037 3036 3036 3034 3033 3032 3031 3030 3029 3028 3027 3027 3026 3026 3025 3025 3024 3024 3024 3024 3024 3024